world map with TOF marked

TOF - Airport

This information may not be accurate or current and is not valid for navigation or flight planning. No warranty of fitness for any purpose is made or implied.

flag of Russian Federation (Russia)

Donate via PayPal

Additional information is available on the NEW Great Circle Mapper

Location
City:  Tomsk, Russian Federation (Russia)
Name:Bogashevo
ICAO / IATA:UNTT / TOF

Details
Type:Airport (Aerodrome, Airfield)
Latitude:56°22'49"N (56.380278)
Longitude:85°12'30"E (85.208333)
Elevation:597 ft (182 m)
Runways:1
Longest:8202 ft (2500 m)

Weather
METAR:UNTT  201230Z 17004MPS 9999 SCT016CB OVC066 06/04 Q1000 NOSIG RMK QFE735 21090060

Related Locations
Nearby:
Farthest:PNT: 11478 mi / 18472 km
Puerto Natales [Teniente Julio Gallardo], MA, CL

Find:

   beyond  
but within

Other Information
Maps:
Links:
Sources:

  


 


Great Circle Mapper   Great Circle Mapper
Great Circle Mapper FAQ   Great Circle Mapper FAQ
  Karl's Home Page
KLSē   KLSē Home
   GC on Facebook
Airlines of the World   Airlines of the World
Donate via PayPal


Copyright © 2004-2014, Karl L. Swartz. All rights reserved.
All trademarks mentioned herein belong to their respective owners.

Please see credits for attribution and copyright information.

Karl Swartz <karl@kls2.com>
  Powered by FreeBSD
Valid HTML 4.01!
Labeled with ICRA
hCard Microformat
Geo Microformat